Bridgeport, West Virginia, United States (26330)
Lat: 39.29N, Lon: 80.26W
Wx Zone: WVZ031
Local Info
Past Weather Observations for Today

NOTE: This archive is for the closest National Weather Service station to Bridgeport. Information may differ from the station used for current weather conditions.

Click here for Long-term Archive

Time Weather Temperature Dewpoint Humidity Pressure Winds Precip Visibility
17:53
Partly Cloudy
63°F / 17°C 57°F / 14°C 83% 29.89 in
(1012 mb)
Calm 0.03 in
(0.76 mm)
10SM
17:00
Overcast
Light Rain
64°F / 18°C 57°F / 14°C 78% 29.83 in
(1010 mb)
NNW 17.3 mph
(NNW 28 kph)
0.02 in
(0.51 mm)
5SM
16:53
Overcast
64°F / 18°C 57°F / 14°C 78% 29.86 in
(1011 mb)
NNW 16.1 mph
(NNW 26 kph)
- 10SM
15:53
Overcast
73°F / 23°C 57°F / 14°C 57% 29.8 in
(1009 mb)
W 5.8 mph
(W 9 kph)
- 10SM
14:53
Partly Cloudy
73°F / 23°C 57°F / 14°C 57% 29.8 in
(1009 mb)
W 8.1 mph
(W 13 kph)
- 10SM
13:53
Mostly Cloudy
73°F / 23°C 59°F / 15°C 61% 29.83 in
(1010 mb)
SSW 12.7 mph
(SSW 20 kph)
- 10SM
12:53
Overcast
72°F / 22°C 61°F / 16°C 69% 29.83 in
(1010 mb)
SSW 9.2 mph
(SSW 15 kph)
0.00 in
(0.00 mm)
10SM
11:53
Overcast
68°F / 20°C 59°F / 15°C 73% 29.86 in
(1011 mb)
SSW 8.1 mph
(SSW 13 kph)
0.00 in
(0.00 mm)
10SM
10:53
Overcast
66°F / 19°C 59°F / 15°C 78% 29.86 in
(1011 mb)
SSW 10.4 mph
(SSW 17 kph)
- 10SM
10:40
Overcast
68°F / 20°C 61°F / 16°C 78% 29.89 in
(1012 mb)
SSW 8.1 mph
(SSW 13 kph)
- 10SM
10:00
Overcast
66°F / 19°C 61°F / 16°C 83% 29.86 in
(1011 mb)
SW 4.6 mph
(SW 7 kph)
- 10SM
09:53
Overcast
66°F / 19°C 61°F / 16°C 83% 29.86 in
(1011 mb)
Variable 4.6 mph
(Variable 7 kph)
- 10SM
08:53
Overcast
61°F / 16°C 59°F / 15°C 94% 29.86 in
(1011 mb)
Calm - 8SM
07:53
Overcast
Fog And Mist
57°F / 14°C 55°F / 13°C 94% 29.86 in
(1011 mb)
Calm 0.01 in
(0.25 mm)
6SM
07:41
Overcast
Fog And Mist
57°F / 14°C 55°F / 13°C 94% 29.86 in
(1011 mb)
Calm 0.01 in
(0.25 mm)
5SM
07:19
Overcast
Light Rain
55°F / 13°C 55°F / 13°C 100% 29.86 in
(1011 mb)
Calm 0.01 in
(0.25 mm)
5SM
06:53
Overcast
Light Rain
55°F / 13°C 55°F / 13°C 100% 29.86 in
(1011 mb)
Calm 0.15 in
(3.81 mm)
3SM
06:37
Overcast
Heavy Rain
55°F / 13°C 54°F / 12°C 94% 29.89 in
(1012 mb)
Calm 0.10 in
(2.54 mm)
1 1/2SM
05:53
Overcast
Light Rain
55°F / 13°C 54°F / 12°C 94% 29.83 in
(1010 mb)
Calm 0.05 in
(1.27 mm)
6SM
04:53
Overcast
55°F / 13°C 54°F / 12°C 94% 29.83 in
(1010 mb)
NE 5.8 mph
(NE 9 kph)
0.00 in
(0.00 mm)
10SM
03:53
Overcast
Light Rain
55°F / 13°C 54°F / 12°C 94% 29.83 in
(1010 mb)
Calm 0.00 in
(0.00 mm)
10SM
02:53
Mostly Cloudy
55°F / 13°C 54°F / 12°C 94% 29.83 in
(1010 mb)
N 4.6 mph
(N 7 kph)
- 10SM
01:53
Overcast
55°F / 13°C 54°F / 12°C 94% 29.83 in
(1010 mb)
ENE 3.5 mph
(ENE 6 kph)
- 10SM
00:53
Clear
57°F / 14°C 54°F / 12°C 88% 29.86 in
(1011 mb)
NE 4.6 mph
(NE 7 kph)
- 10SM
Time Weather Temperature Dewpoint Humidity Pressure Winds Precip Visibility


Weather for websites

WeatherForYou.com, LLC is not responsible for any damages or problems caused by this service. Current weather conditions are obtained from the closest station including government and personal stations which may have varying degrees of accuracy. Weather forecasts are derived from the NOAA NDFD. Like all things, this site belongs to Jesus Christ... He just trusts us to maintain it. If you have any questions or comments email webmaster@weatherforyou.com

Copyright © 2016, WeatherForYou.com LLC. All rights reserved.